Weather Roundup
Issued by NWS Chicago, IL

Home | Current Version | Previous Version | Graphics & Text | Print | Product List | Glossary On
Versions: 1 2 3 4 5 6 7 8 9 10 11 12 13 14 15 16 17 18 19 20 21 22 23 24 25 26 27 28 29 30 31 32 33 34 35 36 37 38 39 40 41 42 43 44 45 46 47 48 49 50
000
NZUS59 KLOT 122003
HRRLOT

CHICAGO AREA WEATHER ROUNDUP
NATIONAL WEATHER SERVICE CHICAGO/ROMEOVILLE IL
200 PM CST FRI FEB 12 2016

NOTE: "FAIR" INDICATES FEW OR NO CLOUDS BELOW 12,000 FEET WITH NO
SIGNIFICANT WEATHER AND/OR OBSTRUCTIONS TO VISIBILITY.

* THESE STATIONS ARE NOT UNDER NWS QUALITY CONTROL. THEY ALSO MAY NOT
  REPORT WEATHER SUCH AS PRECIPITATION OR FOG.

ILZ005-006-012>014-019>023-122100-
NORTHEAST ILLINOIS

CITY           SKY/WX    TMP DP  RH WIND       PRES   REMARKS
OHARE          PTSUNNY   20   5  52 NW24      30.15S WCI   3
MIDWAY         MOSUNNY   24   5  44 NW21G30   30.16S WCI   9
AURORA         PTSUNNY   23   9  55 NW26      30.18R WCI   6
WAUKEGAN       CLOUDY    21   3  45 NW17G30   30.14R WCI   7
DUPAGE AIRPORT PTSUNNY   20   6  55 NW18      30.16R WCI   5
WHEELING       MOSUNNY   22   6  50 NW22G30   30.16S WCI   6
$$

WIZ051-052-058>065-066-070>072-122100-
SOUTHEAST WISCONSIN

CITY           SKY/WX    TMP DP  RH WIND       PRES   REMARKS
MILWAUKEE      PTSUNNY   19  -2  39 NW21G29   30.14R WCI   3
KENOSHA*       MOSUNNY   21   3  45 NW21G28   30.14R WCI   5
RACINE*        MOSUNNY   20  -1  40 W21G30    30.15R WCI   4
BURLINGTON     MOSUNNY   19   2  48 NW22G30   30.15R WCI   2
WAUKESHA       PTSUNNY   16  -2  45 NW26G32   30.15R WCI  -3
$$

INZ001>003-010>013-019-020-122100-
NORTHWEST INDIANA

CITY           SKY/WX    TMP DP  RH WIND       PRES   REMARKS
GARY*          MOSUNNY   27   5  39 MISG      30.15R
MICHIGAN CITY* NOT AVBL
RENSSELAER*    NOT AVBL
VALPARAISO     PTSUNNY   23   8  52 NW15G29   30.11S WCI  10
$$

LMZ740>746-122100-
SOUTHERN LAKE MICHIGAN

STATION/POSITION TIME  SKY/WX   TEMP WIND        PRES    VSBY
                                AIR  DIR/SP/G
                 (UTC)          (F)  (DEG/KT/KT) (MB)    (MI)
HARRISON CRIB    1900            21  300/ 21/ 23   N/A
BURNHAM HARBOR   2000            22  330/ 15/ 21   N/A
CALUMET HARBOR   1900            22  290/ 16/ 23 1020.2R
BURNS HARBOR     1900            22  310/ 14/ 23 1020.7S
MICHIGAN CITY    1900            21  260/ 26/ 30   N/A
$$

ABBREVIATIONS USED IN REMARKS
   TC - TEMPERATURE IN CELSIUS
  WCI - WIND CHILL INDEX
   HX - HEAT INDEX
  VSB - VISIBILITY
$$



USA.gov is the U.S. government's official web portal to all federal, state and local government web resources and services.